Van, Turkey

12:42 AM +03 on February 25, 2017 (GMT +0300)
Van

Weather History for LTCI - February, 2013

Change the Weather History Date:

Tuesday, February 26, 2013

  Actual Average Record
Temperature  
Mean Temperature 31 °F -  
Max Temperature 37 °F 43 °F 55 °F (2011)
Min Temperature 25 °F 26 °F 14 °F (2012)
Degree Days  
Heating Degree Days 34    
Moisture  
Dew Point 27 °F    
Average Humidity 82    
Maximum Humidity 93    
Minimum Humidity 56    
Precipitation  
Precipitation 0.00 in 0.05 in - ()
Sea Level Pressure  
Sea Level Pressure 30.24 in    
Wind  
Wind Speed 4 mph ()    
Max Wind Speed 8 mph    
Max Gust Speed -    
Visibility 4.7 miles    
Events      
Averages and records for this station are not official NWS values.
T = Trace of Precipitation, MM = Missing Value Source: Averaged Metar Reports

Daily Weather History Graph

Daily Weather History Graph

Search for Another Location

Airport or City:

Trip Planner

Search our weather history database for the weather conditions in past years. The results will help you decide how hot, cold, wet, or windy it might be!

Date:

Astronomy

Feb. 26, 2013 Rise Set
Actual Time 5:43 AM EET 4:56 PM EET
Civil Twilight 5:16 AM EET 5:23 PM EET
Nautical Twilight 4:45 AM EET 5:54 PM EET
Astronomical Twilight 4:15 AM EET 6:24 PM EET
Moon 5:48 PM EET (2/26) 5:34 AM EET (2/26)
Length of Visible Light 12h 06m
Length of Day
11h 13m
Full, 100% of the Moon is Illuminated
Feb 26
Full
Mar 4
Last Quarter
Mar 11
New
Mar 19
First Quarter
Mar 27
Full

Hourly Weather History & Observations

Time (EET) Temp. Windchill Dew Point Humidity Pressure Visibility Wind Dir Wind Speed Gust Speed Precip Events Conditions
12:50 AM 26.6 °F 22.6 °F 23.0 °F 86% 30.33 in 5.0 mi ENE 3.5 mph - N/A   Mostly Cloudy
1:50 AM 26.6 °F 21.2 °F 24.8 °F 93% 30.30 in 4.3 mi NE 4.6 mph - N/A   Mostly Cloudy
2:00 AM 27 °F - 25 °F 87%  in 4 mi NE 4.6 mph - -   Partly Cloudy
2:50 AM 28.4 °F 24.6 °F 24.8 °F 86% 30.30 in 5.0 mi NE 3.5 mph - N/A   Mostly Cloudy
3:50 AM 28.4 °F 23.3 °F 26.6 °F 93% 30.30 in 4.3 mi ENE 4.6 mph - N/A   Mostly Cloudy
4:50 AM 30.2 °F 25.4 °F 26.6 °F 86% 30.30 in 4.3 mi NE 4.6 mph - N/A   Mostly Cloudy
5:50 AM 30.2 °F - 26.6 °F 86% 30.30 in 4.3 mi Variable 2.3 mph - N/A   Mostly Cloudy
6:50 AM 30.2 °F 24.3 °F 26.6 °F 86% 30.30 in 3.7 mi East 5.8 mph - N/A   Mostly Cloudy
7:50 AM 30.2 °F 23.4 °F 26.6 °F 86% 30.30 in 3.7 mi ENE 6.9 mph - N/A   Mostly Cloudy
8:00 AM 29 °F - 26 °F 83%  in 4 mi ENE 6.9 mph - -   Mist
8:50 AM 32.0 °F 27.5 °F 26.6 °F 80% 30.30 in 3.7 mi Variable 4.6 mph - N/A   Mostly Cloudy
9:50 AM 33.8 °F 27.7 °F 26.6 °F 75% 30.27 in 5.0 mi WNW 6.9 mph - N/A   Scattered Clouds
10:50 AM 35.6 °F 29.2 °F 28.4 °F 75% 30.27 in 5.0 mi WNW 8.1 mph - N/A   Scattered Clouds
11:50 AM 35.6 °F 29.9 °F 28.4 °F 75% 30.24 in 5.0 mi West 6.9 mph - N/A   Scattered Clouds
12:50 PM 35.6 °F 29.9 °F 28.4 °F 75% 30.21 in 6.2 mi WNW 6.9 mph - N/A   Scattered Clouds
1:50 PM 37.4 °F 32.8 °F 26.6 °F 65% 30.21 in 6.2 mi WNW 5.8 mph - N/A   Scattered Clouds
2:00 PM 37 °F - 27 °F 56%  in 6 mi WNW 5.8 mph - -   Partly Cloudy
2:50 PM 37.4 °F 32.8 °F 28.4 °F 70% 30.18 in 6.2 mi West 5.8 mph - N/A   Scattered Clouds
3:50 PM 37.4 °F 32.8 °F 26.6 °F 65% 30.18 in 6.2 mi West 5.8 mph - N/A   Scattered Clouds
4:50 PM 35.6 °F 32.8 °F 26.6 °F 70% 30.18 in 6.2 mi WSW 3.5 mph - N/A   Scattered Clouds
5:50 PM 32.0 °F 28.7 °F 28.4 °F 87% 30.18 in 5.0 mi SSE 3.5 mph - N/A   Scattered Clouds
6:50 PM 30.2 °F 26.7 °F 28.4 °F 93% 30.18 in 5.0 mi East 3.5 mph - N/A   Scattered Clouds
7:50 PM 28.4 °F - 26.6 °F 93% 30.18 in 3.7 mi Variable 2.3 mph - N/A   Scattered Clouds
8:00 PM 29 °F - 27 °F 90%  in 4 mi East 2.3 mph - -   Mist
8:50 PM 28.4 °F - 26.6 °F 93% 30.18 in 2.5 mi Variable 2.3 mph - N/A   Scattered Clouds
9:50 PM 28.4 °F 24.6 °F 24.8 °F 86% 30.18 in 5.0 mi East 3.5 mph - N/A   Scattered Clouds
10:50 PM 28.4 °F - 26.6 °F 93% 30.18 in 5.0 mi Variable 2.3 mph - N/A   Scattered Clouds
11:50 PM 28.4 °F 23.3 °F 26.6 °F 93% 30.18 in 3.7 mi ESE 4.6 mph - N/A   Scattered Clouds